CZ-6A DEB, 64659

Orbit data source: Space-Track

CZ-6A DEB, 64659 is space debris in LEO originally from a launch on Tue, 06 Aug 2024 UTC launched from the Taiyaun Space Center, China (TSC). Debris objects in space refer to the collection of defunct objects orbiting the Earth. Examples of debris include non-operational satellites, rocket bodies, and fragments generated from explosions, collisions, or faulty payload assembly.

Loading next visibility...
Identifier
64659, 2024-140AEZ
Orbit
LEO
Country
Flag of CNCN / PRC
Related business
Manufacturer
SAST
Mission
Spacecraft
Bus & Motor
Unknown
Mass
Unknown
Launch date (UTC)
2024-08-06 (2 years ago)
Launch vehicle
Unknown
Launch site
Taiyaun Space Center, China (TSC)
Object type
Payload
Rocket body
Debris
Shape & HBR
Unknown shape, 0.1 m
Radar Cross Section
Small (<0.1 m²)

Expand to show TLE details & history
Last TLE update: 4 hours ago

TLE from 4 hours ago
0 CZ-6A DEB
1 64659U 24140AEZ 26118.85658179  .00003670  00000-0  67853-3 0  9996
2 64659  88.9064 268.5911 0102181  47.4009 313.5766 14.61827920 80533
Epoch: 2026-04-28T20:33Z
TLE epoch observation values (Epoch: 2026-04-28T20:33:28.666Z)
Latitude
-0.00007°
Longitude
103.39577°
Altitude
641.005 km
Speed
7.564 km/s
True Right ascension
17h 54m 21s
True Declination
0° 00' 00"
Sunlit
Object was in full shadow at epoch
Visualization orbit readout
Latitude
Unknown
Longitude
Unknown
Altitude
Unknown
Speed
Unknown
Apparent Right ascension
Unknown
Apparent Declination
Unknown
Sunlit
N/A
Visualization observer readout
Local Sidereal Time
08:21:31
Azimuth
Unknown
Elevation
Unknown
Doppler factor
Unknown
Orbital elements
Apogee altitude
756.333 km
Perigee altitude
612.006 km
Semi-major axis
7,062.307 km
Eccentricity
0.01022
Inclination
88.9064°
RAAN
268.5911°
Arg. of periapsis
47.4009°
True anomaly
312.72083°
Mean anomaly
313.5766°
Eccentric anomaly
313.14947°
Mean motion
3.65699 °/min
Orbital period
98.44 mins
BSTAR
0.00067853
Loading maneuver chart data...
Computing Atmospheric mass density...
Loading historical data...
Loading historical data...
Loading historical data...
Loading historical data...
Loading historical data...
Loading historical data...
Loading historical data...

Documentation

Showing up to 5 results
|